スミルノワ-チェルヌイフ彗星

74P/Smirnova-Chernykh (2009)

English version
Home page
Updated on July 23, 2011

---------------------------------------------------------------------

・ プロフィール

・ 写真集

・ 軌道要素

Epoch 2009 July 28.0 TT = JDT 2455040.5
T 2009 July 30.32433 TT                                 MPC
q   3.5576650            (2000.0)            P               Q
n   0.11559931     Peri.   87.24256     -0.95634938     -0.26956158
a   4.1734884      Node    77.10050     +0.20023866     -0.88572019
e   0.1475560      Incl.    6.64743     +0.21283878     -0.37793689
P   8.53
From 2261 observations 1992 Apr. 22-2011 May 4, mean residual 0".7.

・ 星図

・ 光度変化

        m1 = 2.0 + 5 logΔ + 20.0 log r

---------------------------------------------------------------------

軌道要素はM.P.E.C. 2011-J28に掲載されたものです。
星図は StellaNavigator Ver.2.0 for Windows (アストロアーツ編著 / アスキー出版局刊) で作成したものです。
光度グラフはComet for Windowsで作成したものです。

---------------------------------------------------------------------

Copyright(C) Seiichi Yoshida (comet@aerith.net). All rights reserved.